Weather History for KITH - December, 2011

Change the Weather History Date:

Thursday, December 29, 2011

  Actual Average Record
Temperature  
Mean Temperature 20 °F -  
Max Temperature 29 °F 34 °F 63 °F (1984)
Min Temperature 12 °F 17 °F -13 °F (1933)
Degree Days  
Heating Degree Days 44    
Moisture  
Dew Point 12 °F    
Average Humidity 71    
Maximum Humidity 89    
Minimum Humidity 56    
Precipitation  
Precipitation 0.00 in - - ()
Sea Level Pressure  
Sea Level Pressure 29.96 in    
Wind  
Wind Speed 9 mph (SW)    
Max Wind Speed 14 mph    
Max Gust Speed -    
Visibility 10 miles    
Events Snow    
Averages and records for this station are not official NWS values.
T = Trace of Precipitation, MM = Missing Value Source: NWS Daily Summary

Daily Weather History Graph

Daily Weather History Graph

Search for Another Location

Airport or City:

Trip Planner

Search our weather history database for the weather conditions in past years. The results will help you decide how hot, cold, wet, or windy it might be!

Date:

Astronomy

Dec. 29, 2011 Rise Set
Actual Time 7:35 AM EST 4:40 PM EST
Civil Twilight 7:03 AM EST 5:12 PM EST
Nautical Twilight 6:27 AM EST 5:48 PM EST
Astronomical Twilight 5:53 AM EST 6:22 PM EST
Moon 10:20 AM EST (12/29) 10:22 PM EST (12/29)
Length of Visible Light 10h 09m
Length of Day
9h 05m
Waxing Crescent, 26% of the Moon is Illuminated
Dec 29
Waxing Crescent
Jan 1
First Quarter
Jan 9
Full
Jan 16
Last Quarter
Jan 23
New

Hourly Weather History & Observations

Time (EST) Temp. Windchill Dew Point Humidity Pressure Visibility Wind Dir Wind Speed Gust Speed Precip Events Conditions
12:56 AM 15.1 °F 1.1 °F 7.2 °F 71% 29.97 in 10.0 mi West 12.7 mph - N/A   Mostly Cloudy
1:56 AM 14.0 °F -0.8 °F 6.1 °F 71% 30.00 in 10.0 mi West 13.8 mph - N/A   Scattered Clouds
2:38 AM 12.2 °F -0.2 °F 6.8 °F 79% 29.95 in 10.0 mi West 9.2 mph - N/A   Mostly Cloudy
2:56 AM 13.1 °F 0.1 °F 6.1 °F 74% 30.01 in 10.0 mi WNW 10.4 mph - N/A   Mostly Cloudy
3:48 AM 12.2 °F 0.7 °F 6.8 °F 79% 29.95 in 10.0 mi West 8.1 mph - N/A   Mostly Cloudy
3:56 AM 12.0 °F -1.3 °F 5.0 °F 73% 30.01 in 10.0 mi West 10.4 mph - N/A   Mostly Cloudy
4:11 AM 12.2 °F 0.7 °F 6.8 °F 79% 29.96 in 10.0 mi West 8.1 mph - N/A   Partly Cloudy
4:56 AM 13.1 °F 4.0 °F 6.1 °F 74% 30.01 in 10.0 mi West 5.8 mph - N/A   Overcast
5:56 AM 13.1 °F 5.4 °F 7.2 °F 77% 30.01 in 10.0 mi West 4.6 mph - N/A   Overcast
6:21 AM 12.2 °F 2.9 °F 6.8 °F 79% 29.94 in 10.0 mi WNW 5.8 mph - N/A   Overcast
6:28 AM 12.2 °F 2.9 °F 6.8 °F 79% 29.94 in 10.0 mi WNW 5.8 mph - N/A   Mostly Cloudy
7:56 AM 15.1 °F 7.7 °F 9.1 °F 77% 30.03 in 10.0 mi WSW 4.6 mph - N/A   Mostly Cloudy
9:56 AM 18.1 °F 11.3 °F 11.1 °F 74% 30.04 in 10.0 mi SSW 4.6 mph - 0.00 in Snow Light Snow Showers
10:56 AM 21.0 °F 13.4 °F 13.1 °F 71% 30.01 in 10.0 mi South 5.8 mph - 0.00 in   Mostly Cloudy
11:45 AM 24.8 °F 19.1 °F 14.0 °F 64% 29.93 in 10.0 mi Variable 4.6 mph - N/A   Mostly Cloudy
11:56 AM 26.1 °F 20.5 °F 14.0 °F 60% 29.97 in 10.0 mi Variable 4.6 mph - N/A   Mostly Cloudy
12:56 PM 27.1 °F 21.8 °F 14.0 °F 58% 29.95 in 10.0 mi Variable 4.6 mph - N/A   Mostly Cloudy
1:56 PM 27.1 °F 18.9 °F 15.1 °F 60% 29.94 in 10.0 mi SW 8.1 mph - N/A   Mostly Cloudy
2:56 PM 29.1 °F 22.1 °F 15.1 °F 56% 29.94 in 10.0 mi South 6.9 mph - N/A   Mostly Cloudy
3:56 PM 28.0 °F 21.7 °F 16.2 °F 61% 29.93 in 10.0 mi SE 5.8 mph - N/A   Mostly Cloudy
4:56 PM 28.0 °F 20.8 °F 16.2 °F 61% 29.93 in 10.0 mi SE 6.9 mph - N/A   Mostly Cloudy
5:56 PM 28.0 °F 20.8 °F 16.2 °F 61% 29.93 in 10.0 mi SSE 6.9 mph - N/A   Overcast
6:56 PM 28.0 °F 19.3 °F 16.2 °F 61% 29.93 in 10.0 mi SSE 9.2 mph - N/A   Overcast
7:56 PM 28.0 °F 18.6 °F 18.1 °F 66% 29.93 in 10.0 mi SSE 10.4 mph - N/A   Mostly Cloudy
9:56 PM 28.0 °F 18.1 °F 22.1 °F 78% 29.92 in 10.0 mi SSE 11.5 mph - 0.00 in   Overcast
10:56 PM 28.0 °F 18.6 °F 25.2 °F 89% 29.92 in 4.0 mi SSE 10.4 mph - 0.00 in Snow Light Snow
11:56 PM 28.0 °F 19.3 °F 25.2 °F 89% 29.90 in 6.0 mi SSE 9.2 mph - 0.00 in Snow Light Snow